Hourly Data Report for June 01, 2021

SANIRAJAK AIRPORT
NUNAVUT
Current Station Operator: NAVCAN

68°46'33.000" N
81°14'33.000" W
9.10 m
2402354
71293
YUX

Download Data

Hourly Data (June 2021)
Hourly Data Report for June 1, 2021
TIME
LST
Temp Definition
°C
Dew Point Definition
°C
Rel Hum Definition
%
Precip. Amount Definition
mm

Wind Dir Definition
10's deg

Wind Spd Definition
km/h
Visibility Definition
km
Stn Press Definition
kPa
Hmdx Definition


Wind Chill Definition


Weather Definition


00:00 -4.4 -5.2 94 0.0 36 17 16.1 100.98   -10 LegendNANA
01:00 -4.2 -5.0 94 0.0 36 15 16.1 100.97   -10 LegendNANA
02:00 -4.2 -5.2 93 0.0 35 22 16.1 100.94   -11 LegendNANA
03:00 -4.5 -5.3 94 0.0 35 26 16.1 100.93   -12 LegendNANA
04:00 -4.7 -5.5 94 0.0 35 26 16.1 100.92   -12 LegendNANA
05:00 -4.7 -5.5 94 0.0 35 26 16.1 100.89   -12 LegendNANA
06:00 -4.8 -5.8 93 0.0 36 26 16.1 100.87   -12 LegendNANA
07:00 -5.0 -6.0 93 0.0 35 26 12.9 100.84   -12 LegendNANA
08:00 -4.6 -5.9 91 0.0 36 30 16.1 100.81   -12 LegendNANA
09:00 -4.7 -6.0 91 0.0 35 32 14.5 100.79   -13 LegendNANA
10:00 -4.6 -6.0 90 0.0 36 26 16.1 100.74   -12 LegendNANA
11:00 -3.9 -5.8 87 0.0 36 28 16.1 100.70   -11 LegendNANA
12:00 -4.2 -6.1 87 0.0 1 28 16.1 100.68   -12 LegendNANA
13:00 -3.9 -5.9 86 0.0 35 30 16.1 100.65   -12 LegendNANA
14:00 -3.6 -5.6 86 0.0 36 30 16.1 100.62   -11 LegendNANA
15:00 -3.5 -5.3 87 0.0 36 24 16.1 100.60   -10 LegendNANA
16:00 -3.3 -5.4 86 0.0 36 26 16.1 100.56   -10 LegendNANA
17:00 -2.7 -4.7 86 0.0 35 28 16.1 100.54   -10 LegendNANA
18:00 -2.9 -4.7 88 0.0 35 21 16.1 100.52   -9 LegendNANA
19:00 -3.3 -5.0 88 0.0 34 24 16.1 100.49   -10 LegendNANA
20:00 -4.5 -5.9 90 0.0 34 22 16.1 100.45   -11 LegendNANA
21:00 -6.3 -7.5 91 0.0 33 21 16.1 100.40   -13 LegendNANA
22:00 -7.7 -8.9 91 0.0 33 22 16.1 100.37   -15 LegendNANA
23:00 -9.2 -10.4 91 0.0 32 22 16.1 100.34   -17 LegendNANA

Notes on Data Quality.

Legend

  • E = Estimated
  • M = Missing
  • NA = Not Available*
  • [empty] = Indicates an unobserved value
Date modified: